Weather History for Hot Springs, VA

Change the Weather History Date:

Wednesday, December 18, 2013

  Actual Average Record
Temperature  
Mean Temperature 22 °F -  
Max Temperature 26 °F 35 °F 59 °F (2006)
Min Temperature 17 °F 21 °F 8 °F (2000)
Degree Days  
Heating Degree Days 44    
Moisture  
Dew Point 17 °F    
Average Humidity 79    
Maximum Humidity 100    
Minimum Humidity 55    
Precipitation  
Precipitation 0.00 in - - ()
Sea Level Pressure  
Sea Level Pressure 30.06 in    
Wind  
Wind Speed 19 mph (West)    
Max Wind Speed 25 mph    
Max Gust Speed 37 mph    
Visibility 8 miles    
Events Snow    
Averages and records for this station are not official NWS values.
T = Trace of Precipitation, MM = Missing Value Source: NWS Daily Summary

Daily Weather History Graph

Daily Weather History Graph

Search for Another Location

Airport:

Trip Planner

Search our weather history database for the weather conditions in past years. The results will help you decide how hot, cold, wet, or windy it might be!

Date:

Astronomy

Dec. 18, 2013 Rise Set
Actual Time 7:30 AM EST 5:02 PM EST
Civil Twilight 7:00 AM EST 5:31 PM EST
Nautical Twilight 6:27 AM EST 6:04 PM EST
Astronomical Twilight 5:55 AM EST 6:36 PM EST
Moon 6:31 PM EST 8:09 AM EST
Length of Visible Light 10h 31m
Length of Day
9h 32m
Full, 98% of the Moon is Illuminated
Dec 18
Full
Dec 25
Last Quarter
Jan 1
New
Jan 7
First Quarter
Jan 15
Full

Hourly Weather History & Observations

Time (EST) Temp. Windchill Dew Point Humidity Pressure Visibility Wind Dir Wind Speed Gust Speed Precip Events Conditions
12:15 AM 21.2 °F 7.3 °F 21.2 °F 100% 29.93 in 4.0 mi West 16.1 mph 21.9 mph N/A   Overcast
12:35 AM 21.2 °F 7.8 °F 21.2 °F 100% 29.93 in 5.0 mi West 15.0 mph 21.9 mph N/A   Overcast
12:55 AM 21.2 °F 5.2 °F 21.2 °F 100% 29.92 in 1.2 mi West 21.9 mph 26.5 mph N/A Snow Light Snow
1:15 AM 21.2 °F 6.0 °F 21.2 °F 100% 29.92 in 1.5 mi West 19.6 mph 33.4 mph N/A Snow Light Snow
1:35 AM 21.2 °F 6.4 °F 19.4 °F 93% 29.92 in 2.5 mi WNW 18.4 mph 26.5 mph N/A Snow Light Snow
1:55 AM 21.2 °F 5.6 °F 17.6 °F 86% 29.92 in 4.0 mi West 20.7 mph 28.8 mph N/A   Overcast
2:15 AM 21.2 °F 5.2 °F 17.6 °F 86% 29.93 in 4.0 mi West 21.9 mph 28.8 mph N/A   Mostly Cloudy
2:35 AM 19.4 °F 4.1 °F 17.6 °F 93% 29.94 in 2.5 mi West 18.4 mph 33.4 mph N/A Snow Light Snow
2:55 AM 19.4 °F 2.1 °F 17.6 °F 93% 29.94 in 2.0 mi WNW 24.2 mph 31.1 mph N/A Snow Light Snow
3:15 AM 19.4 °F 2.8 °F 17.6 °F 93% 29.95 in 5.0 mi WNW 21.9 mph 29.9 mph N/A   Overcast
3:35 AM 19.4 °F 2.1 °F 17.6 °F 93% 29.95 in 3.0 mi West 24.2 mph 32.2 mph N/A Snow Light Snow
3:55 AM 19.4 °F 1.8 °F 17.6 °F 93% 29.96 in 2.0 mi West 25.3 mph 36.8 mph N/A Snow Light Snow
4:15 AM 19.4 °F 2.5 °F 17.6 °F 93% 29.95 in 2.5 mi West 23.0 mph 28.8 mph N/A Snow Light Snow
4:35 AM 19.4 °F 1.8 °F 17.6 °F 93% 29.96 in 1.8 mi WNW 25.3 mph 36.8 mph N/A Snow Light Snow
4:55 AM 19.4 °F 3.2 °F 17.6 °F 93% 29.96 in 3.0 mi WNW 20.7 mph 29.9 mph N/A Snow Light Snow
5:15 AM 19.4 °F 2.1 °F 15.8 °F 86% 29.96 in 3.0 mi WNW 24.2 mph 32.2 mph N/A Snow Light Snow
5:35 AM 19.4 °F 4.1 °F 15.8 °F 86% 29.97 in 7.0 mi West 18.4 mph 25.3 mph N/A   Overcast
5:55 AM 19.4 °F 4.5 °F 15.8 °F 86% 29.98 in 7.0 mi West 17.3 mph 28.8 mph N/A   Overcast
6:15 AM 17.6 °F 0.5 °F 15.8 °F 93% 29.99 in 4.0 mi WNW 21.9 mph 33.4 mph N/A   Mostly Cloudy
6:35 AM 17.6 °F 0.1 °F 15.8 °F 93% 30.00 in 5.0 mi WNW 23.0 mph 29.9 mph N/A   Overcast
6:55 AM 17.6 °F 0.9 °F 15.8 °F 93% 30.00 in 5.0 mi WNW 20.7 mph 31.1 mph N/A   Overcast
7:15 AM 17.6 °F 1.7 °F 15.8 °F 93% 30.01 in 10.0 mi WNW 18.4 mph 24.2 mph N/A   Mostly Cloudy
7:35 AM 17.6 °F 0.5 °F 15.8 °F 93% 30.02 in 10.0 mi West 21.9 mph 26.5 mph N/A   Mostly Cloudy
7:55 AM 17.6 °F 1.3 °F 15.8 °F 93% 30.02 in 10.0 mi WNW 19.6 mph 26.5 mph N/A   Scattered Clouds
8:15 AM 17.6 °F 0.9 °F 15.8 °F 93% 30.03 in 10.0 mi WNW 20.7 mph 26.5 mph N/A   Scattered Clouds
8:35 AM 17.6 °F 1.7 °F 15.8 °F 93% 30.03 in 10.0 mi West 18.4 mph 25.3 mph N/A   Scattered Clouds
8:55 AM 19.4 °F 3.2 °F 15.8 °F 86% 30.04 in 10.0 mi West 20.7 mph 27.6 mph N/A   Mostly Cloudy
9:15 AM 19.4 °F 4.1 °F 15.8 °F 86% 30.05 in 10.0 mi West 18.4 mph 27.6 mph N/A   Scattered Clouds
9:35 AM 19.4 °F 4.1 °F 15.8 °F 86% 30.05 in 10.0 mi West 18.4 mph 25.3 mph N/A   Scattered Clouds
9:55 AM 19.4 °F 4.5 °F 15.8 °F 86% 30.06 in 10.0 mi West 17.3 mph 26.5 mph N/A   Clear
10:15 AM 21.2 °F 6.0 °F 15.8 °F 80% 30.06 in 10.0 mi West 19.6 mph 24.2 mph N/A   Clear
10:35 AM 21.2 °F 6.8 °F 15.8 °F 80% 30.06 in 10.0 mi West 17.3 mph 25.3 mph N/A   Clear
10:55 AM 21.2 °F 6.8 °F 15.8 °F 80% 30.06 in 10.0 mi West 17.3 mph 25.3 mph N/A   Clear
11:15 AM 23.0 °F 10.1 °F 15.8 °F 74% 30.07 in 10.0 mi West 15.0 mph 26.5 mph N/A   Clear
11:35 AM 24.8 °F 12.4 °F 15.8 °F 69% 30.07 in 10.0 mi West 15.0 mph 24.2 mph N/A   Clear
11:55 AM 24.8 °F 11.9 °F 15.8 °F 69% 30.06 in 10.0 mi West 16.1 mph 21.9 mph N/A   Clear
12:15 PM 24.8 °F 11.9 °F 15.8 °F 69% 30.07 in 10.0 mi West 16.1 mph 23.0 mph N/A   Clear
12:35 PM 24.8 °F 11.9 °F 15.8 °F 69% 30.07 in 10.0 mi West 16.1 mph 21.9 mph N/A   Clear
12:55 PM 26.6 °F 14.3 °F 15.8 °F 64% 30.07 in 10.0 mi West 16.1 mph 25.3 mph N/A   Clear
1:15 PM 26.6 °F 14.3 °F 15.8 °F 64% 30.08 in 10.0 mi West 16.1 mph 24.2 mph N/A   Clear
1:35 PM 26.6 °F 14.7 °F 17.6 °F 69% 30.08 in 10.0 mi West 15.0 mph 21.9 mph N/A   Clear
1:55 PM 26.6 °F 16.2 °F 17.6 °F 69% 30.08 in 10.0 mi West 11.5 mph 18.4 mph N/A   Clear
2:15 PM 26.6 °F 14.7 °F 17.6 °F 69% 30.08 in 10.0 mi West 15.0 mph 23.0 mph N/A   Clear
2:35 PM 26.6 °F 14.7 °F 17.6 °F 69% 30.09 in 10.0 mi West 15.0 mph 23.0 mph N/A   Clear
2:55 PM 26.6 °F 14.3 °F 17.6 °F 69% 30.10 in 10.0 mi West 16.1 mph 20.7 mph N/A   Clear
3:15 PM 26.6 °F 14.7 °F 17.6 °F 69% 30.10 in 10.0 mi West 15.0 mph 18.4 mph N/A   Clear
3:35 PM 26.6 °F 14.7 °F 17.6 °F 69% 30.11 in 10.0 mi West 15.0 mph 20.7 mph N/A   Clear
4:15 PM 26.6 °F 15.2 °F 17.6 °F 69% 30.12 in 10.0 mi West 13.8 mph - N/A   Clear
4:35 PM 26.6 °F 15.2 °F 17.6 °F 69% 30.12 in 10.0 mi West 13.8 mph 21.9 mph N/A   Clear
4:55 PM 26.6 °F 13.4 °F 17.6 °F 69% 30.13 in 10.0 mi West 18.4 mph 23.0 mph N/A   Clear
5:15 PM 24.8 °F 11.1 °F 17.6 °F 74% 30.13 in 10.0 mi West 18.4 mph 25.3 mph N/A   Clear
5:35 PM 24.8 °F 10.3 °F 17.6 °F 74% 30.13 in 10.0 mi West 20.7 mph 25.3 mph N/A   Clear
5:55 PM 24.8 °F 11.1 °F 17.6 °F 74% 30.13 in 10.0 mi West 18.4 mph - N/A   Clear
6:15 PM 24.8 °F 10.0 °F 17.6 °F 74% 30.14 in 10.0 mi West 21.9 mph 26.5 mph N/A   Clear
6:35 PM 24.8 °F 10.7 °F 17.6 °F 74% 30.14 in 10.0 mi West 19.6 mph 28.8 mph N/A   Clear
6:55 PM 24.8 °F 10.3 °F 17.6 °F 74% 30.14 in 10.0 mi West 20.7 mph - N/A   Clear
7:15 PM 24.8 °F 11.1 °F 17.6 °F 74% 30.15 in 10.0 mi West 18.4 mph 24.2 mph N/A   Clear
7:35 PM 24.8 °F 11.5 °F 17.6 °F 74% 30.15 in 10.0 mi West 17.3 mph 24.2 mph N/A   Clear
7:55 PM 24.8 °F 12.4 °F 17.6 °F 74% 30.15 in 10.0 mi West 15.0 mph - N/A   Clear
8:15 PM 24.8 °F 13.4 °F 15.8 °F 69% 30.15 in 10.0 mi West 12.7 mph - N/A   Clear
8:35 PM 24.8 °F 12.9 °F 15.8 °F 69% 30.15 in 10.0 mi West 13.8 mph - N/A   Clear
8:55 PM 24.8 °F 12.4 °F 17.6 °F 74% 30.15 in 10.0 mi West 15.0 mph - N/A   Clear
9:15 PM 24.8 °F 12.4 °F 17.6 °F 74% 30.16 in 10.0 mi West 15.0 mph - N/A   Clear
9:35 PM 26.6 °F 14.3 °F 17.6 °F 69% 30.16 in 10.0 mi West 16.1 mph - N/A   Clear
9:55 PM 26.6 °F 13.4 °F 15.8 °F 64% 30.16 in 10.0 mi West 18.4 mph - N/A   Clear
10:15 PM 26.6 °F 13.1 °F 15.8 °F 64% 30.16 in 10.0 mi West 19.6 mph 25.3 mph N/A   Clear
10:35 PM 26.6 °F 13.4 °F 14.0 °F 59% 30.16 in 10.0 mi West 18.4 mph - N/A   Clear
10:55 PM 26.6 °F 13.4 °F 14.0 °F 59% 30.16 in 10.0 mi West 18.4 mph 21.9 mph N/A   Clear
11:15 PM 26.6 °F 14.7 °F 14.0 °F 59% 30.16 in 10.0 mi West 15.0 mph 21.9 mph N/A   Clear
11:35 PM 26.6 °F 14.7 °F 14.0 °F 59% 30.16 in 10.0 mi West 15.0 mph - N/A   Clear
11:55 PM 26.6 °F 14.3 °F 12.2 °F 55% 30.16 in 10.0 mi West 16.1 mph - N/A   Clear